This is the latest recevied weather packets stored in our database for station/object DL4YM-13. If no packets are shown the sender has not sent any weather packets the latest 10 day(s).
| Time | Temp. | Humidity | Pressure | Rain* | Wind** | Luminosity | Snow |
|---|---|---|---|---|---|---|---|
| 1777978527 | 15° C | 82% | 994.1 hPa | - | - | - | - |
| 1777977927 | 15° C | 82% | 994.2 hPa | - | - | - | - |
| 1777977327 | 15° C | 82% | 994.2 hPa | - | - | - | - |
| 1777976727 | 15° C | 83% | 994.2 hPa | - | - | - | - |
| 1777976127 | 15° C | 85% | 994.2 hPa | - | - | - | - |
| 1777975526 | 13.89° C | 87% | 994.2 hPa | - | - | - | - |
| 1777974926 | 13.89° C | 90% | 994.4 hPa | - | - | - | - |
| 1777974327 | 13.89° C | 90% | 994.4 hPa | - | - | - | - |
| 1777973727 | 13.33° C | 92% | 994.4 hPa | - | - | - | - |
| 1777973127 | 12.78° C | 95% | 994.5 hPa | - | - | - | - |
| 1777972526 | 12.78° C | 95% | 994.5 hPa | - | - | - | - |
| 1777971927 | 12.78° C | 96% | 994.5 hPa | - | - | - | - |
| 1777971327 | 12.78° C | 96% | 994.6 hPa | - | - | - | - |
| 1777970727 | 13.33° C | 94% | 994.4 hPa | - | - | - | - |
| 1777970126 | 13.33° C | 94% | 994.5 hPa | - | - | - | - |
| 1777969527 | 12.78° C | 99% | 994.5 hPa | - | - | - | - |
| 1777968926 | 12.78° C | 99% | 994.5 hPa | - | - | - | - |
| 1777968326 | 12.78° C | 99% | 994.5 hPa | - | - | - | - |
| 1777967726 | 12.78° C | 98% | 994.5 hPa | - | - | - | - |
| 1777967126 | 13.89° C | 91% | 994.7 hPa | - | - | - | - |
| 1777966527 | 13.89° C | 91% | 994.7 hPa | - | - | - | - |
| 1777965926 | 14.44° C | 90% | 994.7 hPa | - | - | - | - |
| 1777965327 | 14.44° C | 90% | 994.7 hPa | - | - | - | - |
| 1777964726 | 13.89° C | 94% | 994.7 hPa | - | - | - | - |
| 1777964126 | 12.78° C | 10% | 994.7 hPa | - | - | - | - |
* Rain since midnight (hover to see other rain measurements)
** Current wind speed in m/s (hover to see current wind gust speed)